Location: Coed Ely
(51.5661°N, 3.4150°W)
Time: 20:04:33
(UTC+00:00)

Cosmos 44 - Pass Details

Date: 28 January 2021
Orbit: 572 x 789 km, 65.1° (Epoch: 27 February)

Event Time Altitude Azimuth Distance (km) Brightness Sun altitude
Rises 17:26:39 0° 202° (SSW) 2,985 7.3 -5.1°
Reaches altitude 10° 17:28:56 10° 197° (SSW) 2,111 6.4 -5.4°
Maximum altitude 17:33:35 50° 122° (ESE) 908 3.7 -6.1°
Drops below altitude 10° 17:38:34 10° 49° (NE) 2,260 5.4 -6.8°
Enters shadow 17:39:28 - 46° (NE) 2,603 5.7 -7.0°
